sat.trackr.live / text

‹ back to catalog

STARLINK-35067

NORAD 65527 · 2025-200H

PAYLOAD ACTIVE UNKNOWN

§ Identity

Operator
Country
US
Launch date
2025-09-06
Launch site
AFWTR
Launch vehicle
Mass (kg)
RCS (m²)

Purposes: comms

External: N2YO · Heavens-Above · Gunter

§ Orbital elements

Epoch: 2026-09-20T10:57:09.668160Z

Period
93.90 min
Inclination
97.2829°
Eccentricity
0.0002692
Mean motion
15.33469448 rev/d
Perigee alt
463.6 km
Apogee alt
467.3 km
Semi-major
6,843.6 km
B*
4.5578e-4
RAAN
329.8248°
Arg perigee
94.4553°
Mean anomaly
265.6997°
Rev number
5,862

§ Raw data

STARLINK-350671 65527U 25200H   26263.45636190  .00014680  00000+0  45578-3 0  99972 65527  97.2829 329.8248 0002692  94.4553 265.6997 15.33469448 58621

JSON: /api/v1/satellites/65527 · /tle

For live sub-satellite position, see the globe view (requires WebGL).

§ Visibility from observer

Set your observer location to see the next 7 days of passes ≥ 10°. The values pass through the URL so the page stays shareable.

No JS? Fill the form by hand. The geolocation button needs JavaScript.